Junction City, KY

9:01 PM EST on February 06, 2016 (GMT -0500)
Powell

Weather History for KDVK - July, 2013

Change the Weather History Date:

Tuesday, July 2, 2013

  Actual Average (KLEX) Record (KLEX)
Temperature  
Mean Temperature 70 °F 76 °F  
Max Temperature 82 °F 86 °F 97 °F (1970)
Min Temperature 59 °F 66 °F 47 °F (1937)
Degree Days  
Heating Degree Days 0 0  
Month to date heating degree days 0  
Since 1 June heating degree days 11  
Since 1 July heating degree days 0  
Cooling Degree Days 6 11  
Month to date cooling degree days 22  
Year to date cooling degree days 371  
Since 1 June cooling degree days 264  
Growing Degree Days 20 (Base 50)    
Moisture  
Dew Point 63 °F    
Average Humidity 86    
Maximum Humidity 100    
Minimum Humidity 54    
Precipitation  
Precipitation 0.00 in 0.14 in 1.66 in (1945)
Month to date precipitation 0.28  
Year to date precipitation 24.05  
Snow  
Snow 0.00 in 0.00 in - ()
Month to date snowfall 0.0  
Since 1 June snowfall 0.0  
Since 1 July snowfall 0.0  
Snow Depth -    
Sea Level Pressure  
Sea Level Pressure 30.00 in    
Wind  
Wind Speed 2 mph (SSW)    
Max Wind Speed 10 mph    
Max Gust Speed 37 mph    
Visibility 8 miles    
Events Fog , Rain    
T = Trace of Precipitation, MM = Missing Value Source: NWS Daily Summary

Daily Weather History Graph

Daily Weather History Graph

Search for Another Location

Airport or City:

Trip Planner

Search our weather history database for the weather conditions in past years. The results will help you decide how hot, cold, wet, or windy it might be!

Date:

Astronomy

Jul. 02, 2013 Rise Set
Actual Time 6:22 AM EDT 9:04 PM EDT
Civil Twilight 5:51 AM EDT 9:35 PM EDT
Nautical Twilight 5:12 AM EDT 10:13 PM EDT
Astronomical Twilight 4:28 AM EDT 10:57 PM EDT
Moon 2:20 AM EDT (7/2) 4:20 PM EDT (7/2)
Length of Visible Light 15h 44m
Length of Day
14h 42m
Waning Crescent, 26% of the Moon is Illuminated
Jul 2
Waning Crescent
Jul 8
New
Jul 15
First Quarter
Jul 22
Full
Jul 29
Last Quarter

Hourly Weather History & Observations

Time (EDT) Temp. Heat Index Dew Point Humidity Pressure Visibility Wind Dir Wind Speed Gust Speed Precip Events Conditions
12:15 AM 59.0 °F - 59.0 °F 100% 29.94 in 10.0 mi Calm Calm - N/A   Clear
12:35 AM 59.0 °F - 59.0 °F 100% 29.94 in 10.0 mi Calm Calm - N/A   Scattered Clouds
12:55 AM 59.0 °F - 59.0 °F 100% 29.94 in 10.0 mi NNE 3.5 mph - N/A   Scattered Clouds
1:15 AM 59.0 °F - 59.0 °F 100% 29.94 in 10.0 mi Calm Calm - N/A   Scattered Clouds
1:35 AM 59.0 °F - 59.0 °F 100% 29.94 in 10.0 mi Calm Calm - N/A   Overcast
1:55 AM 59.0 °F - 59.0 °F 100% 29.94 in 7.0 mi Calm Calm - N/A   Scattered Clouds
2:15 AM 59.0 °F - 59.0 °F 100% 29.93 in 7.0 mi Calm Calm - N/A   Mostly Cloudy
2:35 AM 59.0 °F - 59.0 °F 100% 29.93 in 5.0 mi Calm Calm - N/A   Mostly Cloudy
2:55 AM 59.0 °F - 59.0 °F 100% 29.93 in 3.0 mi Calm Calm - N/A   Mostly Cloudy
3:15 AM 59.0 °F - 59.0 °F 100% 29.93 in 1.8 mi Calm Calm - N/A   Overcast
3:35 AM 59.0 °F - 59.0 °F 100% 29.94 in 4.0 mi Calm Calm - N/A   Mostly Cloudy
3:55 AM 59.0 °F - 59.0 °F 100% 29.93 in 7.0 mi Calm Calm - N/A   Overcast
4:15 AM 59.0 °F - 59.0 °F 100% 29.93 in 5.0 mi Calm Calm - N/A   Overcast
4:35 AM 59.0 °F - 59.0 °F 100% 29.93 in 0.5 mi Calm Calm - N/A Fog Fog
4:55 AM 59.0 °F - 59.0 °F 100% 29.93 in 1.0 mi Calm Calm - N/A   Overcast
5:15 AM 59.0 °F - 59.0 °F 100% 29.93 in 5.0 mi Calm Calm - N/A   Overcast
5:35 AM 60.8 °F - 60.8 °F 100% 29.94 in 7.0 mi Calm Calm - N/A   Overcast
5:55 AM 60.8 °F - 60.8 °F 100% 29.94 in 5.0 mi Calm Calm - N/A   Overcast
6:15 AM 60.8 °F - 60.8 °F 100% 29.95 in 4.0 mi Calm Calm - N/A   Overcast
6:35 AM 60.8 °F - 60.8 °F 100% 29.95 in 0.2 mi SW 3.5 mph - N/A Fog Fog
6:55 AM 60.8 °F - 60.8 °F 100% 29.96 in 0.2 mi Calm Calm - N/A Fog Fog
7:15 AM 60.8 °F - 60.8 °F 100% 29.97 in 4.0 mi Calm Calm - N/A   Scattered Clouds
7:35 AM 60.8 °F - 60.8 °F 100% 29.98 in 4.0 mi Calm Calm - N/A   Clear
7:55 AM 60.8 °F - 60.8 °F 100% 29.99 in 7.0 mi Calm Calm - N/A   Mostly Cloudy
8:15 AM 62.6 °F - 62.6 °F 100% 29.99 in 7.0 mi Calm Calm - N/A   Overcast
8:35 AM 62.6 °F - 62.6 °F 100% 30.00 in 10.0 mi SW 4.6 mph - N/A   Overcast
8:55 AM 64.4 °F - 62.6 °F 94% 30.01 in 10.0 mi SSW 5.8 mph - N/A   Overcast
9:15 AM 64.4 °F - 64.4 °F 100% 30.01 in 3.0 mi SW 4.6 mph - N/A   Overcast
9:35 AM 66.2 °F - 64.4 °F 94% 30.02 in 10.0 mi SSW 4.6 mph - N/A   Overcast
9:55 AM 68.0 °F - 64.4 °F 88% 30.02 in 10.0 mi SSW 4.6 mph - N/A   Overcast
10:15 AM 68.0 °F - 64.4 °F 88% 30.02 in 10.0 mi SW 4.6 mph - N/A   Mostly Cloudy
10:35 AM 69.8 °F - 64.4 °F 83% 30.01 in 10.0 mi SW 5.8 mph - N/A   Mostly Cloudy
10:55 AM 71.6 °F - 66.2 °F 83% 30.02 in 10.0 mi SSW 6.9 mph - N/A   Mostly Cloudy
11:15 AM 73.4 °F - 64.4 °F 73% 30.02 in 10.0 mi SW 5.8 mph - N/A   Scattered Clouds
11:35 AM 73.4 °F - 66.2 °F 78% 30.02 in 10.0 mi South 5.8 mph - N/A   Scattered Clouds
11:55 AM 77.0 °F - 66.2 °F 69% 30.02 in 10.0 mi Calm Calm - N/A   Clear
12:15 PM 77.0 °F - 64.4 °F 65% 30.02 in 10.0 mi South 5.8 mph - N/A   Mostly Cloudy
12:35 PM 77.0 °F - 64.4 °F 65% 30.02 in 10.0 mi SW 6.9 mph - N/A   Mostly Cloudy
12:55 PM 78.8 °F - 64.4 °F 61% 30.02 in 10.0 mi SSW 10.4 mph - N/A   Overcast
1:15 PM 78.8 °F - 64.4 °F 61% 30.02 in 10.0 mi SW 6.9 mph - N/A   Mostly Cloudy
1:35 PM 80.6 °F 82.3 °F 64.4 °F 58% 30.01 in 10.0 mi SW 9.2 mph - N/A   Scattered Clouds
1:55 PM 80.6 °F 82.3 °F 64.4 °F 58% 30.01 in 10.0 mi WSW 6.9 mph 16.1 mph N/A   Scattered Clouds
2:15 PM 80.6 °F 82.3 °F 64.4 °F 58% 30.01 in 10.0 mi WSW 9.2 mph - N/A   Scattered Clouds
2:35 PM 82.4 °F 83.9 °F 64.4 °F 54% 30.01 in 10.0 mi SW 9.2 mph - N/A   Scattered Clouds
2:55 PM 78.8 °F - 62.6 °F 57% 30.01 in 10.0 mi SW 4.6 mph - N/A   Mostly Cloudy
3:15 PM 71.6 °F - 62.6 °F 73% 30.03 in 2.0 mi West 5.8 mph 36.8 mph N/A Rain Heavy Rain
3:35 PM 71.6 °F - 64.4 °F 78% 30.01 in 10.0 mi SSW 4.6 mph - N/A   Mostly Cloudy
3:55 PM 73.4 °F - 68.0 °F 83% 30.01 in 10.0 mi SSW 4.6 mph - N/A   Scattered Clouds
4:15 PM 77.0 °F - 64.4 °F 65% 30.00 in 10.0 mi Calm Calm - N/A   Scattered Clouds
4:35 PM 77.0 °F - 66.2 °F 69% 30.01 in 10.0 mi SSW 3.5 mph - N/A   Clear
4:55 PM 73.4 °F - 66.2 °F 78% 30.01 in 10.0 mi Calm Calm - N/A   Scattered Clouds
5:15 PM 73.4 °F - 66.2 °F 78% 30.01 in 10.0 mi Calm Calm - N/A   Overcast
5:35 PM 73.4 °F - 68.0 °F 83% 30.02 in 10.0 mi SSE 4.6 mph - N/A Rain Light Rain
5:55 PM 75.2 °F - 68.0 °F 78% 30.01 in 10.0 mi SSE 3.5 mph - N/A   Mostly Cloudy
6:15 PM 75.2 °F - 68.0 °F 78% 30.00 in 10.0 mi SSE 4.6 mph - N/A   Overcast
6:35 PM 77.0 °F - 68.0 °F 74% 30.01 in 10.0 mi South 3.5 mph - N/A   Mostly Cloudy
6:55 PM 77.0 °F - 66.2 °F 69% 30.01 in 10.0 mi Calm Calm - N/A   Scattered Clouds
7:15 PM 77.0 °F - 68.0 °F 74% 30.01 in 10.0 mi SSE 3.5 mph - N/A   Clear
7:35 PM 77.0 °F - 68.0 °F 74% 30.02 in 10.0 mi SSE 4.6 mph - N/A   Clear
7:55 PM 75.2 °F - 68.0 °F 78% 30.02 in 10.0 mi SSE 4.6 mph - N/A   Mostly Cloudy
8:15 PM 73.4 °F - 69.8 °F 88% 30.03 in 10.0 mi Calm Calm - N/A   Overcast
8:35 PM 73.4 °F - 68.0 °F 83% 30.03 in 10.0 mi Calm Calm - N/A   Mostly Cloudy
8:55 PM 73.4 °F - 68.0 °F 83% 30.03 in 10.0 mi West 9.2 mph - N/A   Overcast
9:15 PM 71.6 °F - 62.6 °F 73% 30.04 in 10.0 mi West 3.5 mph - N/A   Overcast
9:35 PM 69.8 °F - 64.4 °F 83% 30.05 in 10.0 mi Calm Calm - N/A   Overcast
9:55 PM 69.8 °F - 64.4 °F 83% 30.06 in 10.0 mi Calm Calm - N/A   Overcast
10:15 PM 69.8 °F - 66.2 °F 88% 30.07 in 7.0 mi South 5.8 mph - N/A Rain Rain
10:35 PM 68.0 °F - 64.4 °F 88% 30.08 in 10.0 mi SSE 3.5 mph - N/A Rain Rain
10:55 PM 66.2 °F - 64.4 °F 94% 30.08 in 10.0 mi Calm Calm - N/A   Mostly Cloudy
11:15 PM 66.2 °F - 64.4 °F 94% 30.08 in 10.0 mi Calm Calm - N/A   Mostly Cloudy
11:35 PM 68.0 °F - 66.2 °F 94% 30.08 in 10.0 mi Calm Calm - N/A   Overcast
11:55 PM 68.0 °F - 66.2 °F 94% 30.08 in 10.0 mi Calm Calm - N/A   Overcast